Simultaneous Nadir Overpasses (SNOs) Predictions

Prediction of SNOs between AQUA and METOP-B Satellite Orbit:

Table of predicted SNOs for the next 14.0 days since TLE Epoch: 4/8/2023
Index Date (AQUA) Time (AQUA) Lat,Lon (AQUA) SZA (AQUA ) Date (METOP-B) Time (METOP-B) Lat,Lon (METOP-B) SZA (METOP-B ) Distance(km) Time Diff (sec)
1 04/08/2023 07:35:36 -74.33,-118.28 112.85 04/08/2023 07:34:28 -74.35,-118.25 112.82 2.06 68
2 04/08/2023 08:25:03 74.40, 49.20 67.22 04/08/2023 08:25:07 74.40, 49.21 67.22 0.35 4
3 04/08/2023 09:14:32 -74.64,-143.76 112.54 04/08/2023 09:15:43 -74.67,-142.75 112.55 29.82 71
4 04/11/2023 01:28:45 -74.29, -26.44 113.92 04/11/2023 01:27:32 -74.25, -26.76 113.93 10.36 73
5 04/11/2023 02:18:13 74.41, 140.90 66.21 04/11/2023 02:18:09 74.40, 140.95 66.19 2.32 4
6 04/11/2023 03:07:38 -74.45, -51.54 113.77 04/11/2023 03:08:49 -74.48, -51.52 113.75 2.91 71
7 04/13/2023 19:21:49 -74.06, 65.84 115.17 04/13/2023 19:20:39 -74.00, 64.35 115.18 46.08 70
8 04/13/2023 20:11:20 74.39,-127.31 65.18 04/13/2023 20:11:10 74.39,-127.34 65.18 1.21 10
9 04/13/2023 21:00:46 -74.48, 40.13 114.75 04/13/2023 21:01:50 -74.47, 40.20 114.76 2.40 64
10 04/16/2023 13:14:51 -73.84, 158.08 116.38 04/16/2023 13:13:44 -73.78, 155.57 116.37 77.91 67
11 04/16/2023 14:04:27 74.39, -35.56 64.19 04/16/2023 14:04:11 74.42, -35.53 64.22 2.67 16
12 04/16/2023 14:53:53 -74.47, 131.89 115.74 04/16/2023 14:54:52 -74.45, 131.89 115.77 2.53 59
13 04/19/2023 07:57:33 74.41, 56.16 63.24 04/19/2023 07:57:13 74.38, 56.13 63.22 2.81 20
14 04/19/2023 08:46:59 -74.49,-136.38 116.69 04/19/2023 08:47:53 -74.47,-136.31 116.71 2.64 54
15 04/22/2023 01:50:37 74.39, 147.97 62.28 04/22/2023 01:50:14 74.39, 147.89 62.29 2.21 23
16 04/22/2023 02:40:03 -74.47, -44.57 117.66 04/22/2023 02:40:54 -74.48, -44.55 117.64 1.84 51



Historial Predications of SNOs between AQUA and METOP-B
